Driggs, ID

1:33 AM MDT on September 24, 2017 (GMT -0600)
Driggs

Weather History for KDIJ - October, 2012

Change the Weather History Date:

Saturday, October 6, 2012

  Actual Average (KJAC) Record (KJAC)
Temperature  
Mean Temperature 32 °F -  
Max Temperature 50 °F 60 °F 75 °F (1980)
Min Temperature 14 °F 24 °F 12 °F (2000)
Degree Days  
Heating Degree Days 33    
Moisture  
Dew Point 0 °F    
Average Humidity 35    
Maximum Humidity 67    
Minimum Humidity 5    
Precipitation  
Precipitation 0.00 in - - ()
Sea Level Pressure  
Sea Level Pressure 30.25 in    
Wind  
Wind Speed 4 mph (East)    
Max Wind Speed 10 mph    
Max Gust Speed -    
Visibility 10 miles    
Events      
Averages and records for this station are not official NWS values.
T = Trace of Precipitation, MM = Missing Value Source: NWS Daily Summary

Daily Weather History Graph

Daily Weather History Graph

Search for Another Location

Airport or City:

Trip Planner

Search our weather history database for the weather conditions in past years. The results will help you decide how hot, cold, wet, or windy it might be!

Date:

Astronomy

Oct. 06, 2012 Rise Set
Actual Time 7:28 AM MDT 6:55 PM MDT
Civil Twilight 6:59 AM MDT 7:24 PM MDT
Nautical Twilight 6:26 AM MDT 7:57 PM MDT
Astronomical Twilight 5:53 AM MDT 8:30 PM MDT
Moon 11:05 PM MDT (10/6) 1:34 PM MDT (10/6)
Length of Visible Light 12h 24m
Length of Day
11h 26m
Waning Gibbous, 65% of the Moon is Illuminated
Oct 6
Waning Gibbous
Oct 8
Last Quarter
Oct 15
New
Oct 21
First Quarter
Oct 29
Full

Hourly Weather History & Observations

Time (MDT) Temp. Windchill Dew Point Humidity Pressure Visibility Wind Dir Wind Speed Gust Speed Precip Events Conditions
12:56 AM 25.2 °F - 11.1 °F 55% 30.25 in 10.0 mi Calm Calm - N/A   Mostly Cloudy
1:56 AM 25.2 °F 19.5 °F 10.0 °F 53% 30.25 in 10.0 mi West 4.6 mph - N/A   Clear
2:56 AM 18.1 °F 10.0 °F 8.1 °F 65% 30.27 in 10.0 mi SE 5.8 mph - N/A   Clear
3:56 AM 18.1 °F 11.3 °F 7.2 °F 62% 30.27 in 10.0 mi SSW 4.6 mph - N/A   Clear
4:56 AM 16.2 °F 9.0 °F 6.1 °F 65% 30.26 in 10.0 mi SSE 4.6 mph - N/A   Clear
5:56 AM 15.1 °F 7.7 °F 5.0 °F 64% 30.29 in 10.0 mi SSE 4.6 mph - N/A   Clear
6:56 AM 14.0 °F 3.9 °F 5.0 °F 67% 30.33 in 10.0 mi SE 6.9 mph - N/A   Clear
8:56 AM 28.0 °F - 9.1 °F 45% 30.30 in 10.0 mi Calm Calm - N/A   Clear
9:56 AM 32.0 °F 28.7 °F 8.1 °F 37% 30.30 in 10.0 mi Variable 3.5 mph - N/A   Partly Cloudy
10:56 AM 36.9 °F 33.1 °F 6.1 °F 28% 30.28 in 10.0 mi SW 4.6 mph - N/A   Clear
11:56 AM 39.9 °F 37.8 °F 5.0 °F 23% 30.24 in 10.0 mi NNW 3.5 mph - N/A   Clear
12:56 PM 43.9 °F 39.9 °F 2.1 °F 18% 30.22 in 10.0 mi North 6.9 mph - N/A   Clear
1:56 PM 46.9 °F - -13.0 °F 8% 30.19 in 10.0 mi Calm Calm - N/A   Clear
2:56 PM 50.0 °F - -18.9 °F 5% 30.17 in 10.0 mi Variable 3.5 mph - N/A   Clear
3:56 PM 50.0 °F - -19.8 °F 5% 30.17 in 10.0 mi North 6.9 mph - N/A   Clear
5:56 PM 46.9 °F - -9.9 °F 9% 30.18 in 10.0 mi NNW 10.4 mph - N/A   Clear
6:56 PM 39.9 °F 35.8 °F -2.9 °F 16% 30.22 in 10.0 mi NW 5.8 mph - N/A   Clear
7:56 PM 34.0 °F 31.0 °F -2.9 °F 21% 30.26 in 10.0 mi ENE 3.5 mph - N/A   Clear
8:56 PM 28.0 °F 20.0 °F -1.8 °F 28% 30.24 in 10.0 mi ENE 8.1 mph - N/A   Clear
9:56 PM 27.1 °F 21.8 °F 1.0 °F 33% 30.23 in 10.0 mi North 4.6 mph - N/A   Clear
10:56 PM 23.0 °F 14.7 °F -0.9 °F 35% 30.23 in 10.0 mi SE 6.9 mph - N/A   Clear
11:56 PM 20.1 °F 15.2 °F -2.9 °F 36% 30.24 in 10.0 mi ESE 3.5 mph - N/A   Clear